Flag for Germany Weather past 2 weeks in Augsburg, Bavaria, Germany

Now
61 °F

Sunny.


Feels Like: 61 °F
Forecast: 48 / 67 °F
Wind: 1 mph from North

Location: Augsburg Airport

Current Time: Aug 22, 2014 at 11:51:18 AM

Latest Report: Aug 22, 2014 at 10:50 AM


Visibility: 10 mi

Pressure: 30.04 "Hg

Humidity: 55%

Dew point: 45 °F

Location of AugsburgLocation

Historic Weather in Augsburg — Graph

°F

Augsburg temperature yesterday

Maximum temperature yesterday: 68 °F (at 4:20 PM)
Minimum temperature yesterday: 52 °F (at 6:50 AM)
Average temperature yesterday: 62 °F

Past Weeks' High & Low Weather Summary

 TemperatureHumidityPressure
High84 °F (Aug 10, 5:20 PM)100% (Aug 8, 6:50 AM)30.18 "Hg (Aug 8, 6:50 AM)
Low46 °F (Aug 22, 6:50 AM)34% (Aug 8, 4:20 PM)29.68 "Hg (Aug 13, 2:20 PM)
Average64 °F67%29.98 "Hg
* Reported Aug 7 10:20 AM — Aug 22 10:20 AM, Augsburg, Weather by CustomWeather, © 2014

Note: Actual official high and low records may vary slightly from our data, if they occured in-between our weather recording intervals... More about our weather records

Advertising

Augsburg weather history for previous 24 hours

 ConditionsComfort  
Time TempWeatherWind HumidityBarometerVisibility
10:20 AM
Aug 22
59 °FPassing clouds.3 mph63%30.04 "HgN/A
9:50 AM57 °FSunny.2 mph67%30.04 "Hg10 mi
9:20 AM54 °FPassing clouds.3 mph77%30.04 "HgN/A
8:50 AM54 °FPassing clouds.5 mph88%30.04 "HgN/A
8:20 AM52 °FPassing clouds.3 mph94%30.01 "HgN/A
7:50 AM50 °FSunny.1 mph100%30.01 "Hg10 mi
7:20 AM48 °FSunny.1 mph100%30.01 "Hg10 mi
6:50 AM46 °FClear.1 mph100%30.01 "Hg10 mi
8:50 PM
Aug 21
55 °FSunny.5 mph77%30.04 "Hg10 mi
8:20 PM57 °FSunny.3 mph72%30.04 "Hg10 mi
7:50 PM63 °FSunny.3 mph49%30.04 "Hg10 mi
7:20 PM63 °FSunny.5 mph49%30.04 "Hg10 mi
6:50 PM66 °FSunny.6 mph40%30.01 "Hg10 mi
6:20 PM66 °FPassing clouds.5 mph40%30.01 "HgN/A
5:50 PM66 °FPassing clouds.6 mph40%30.04 "HgN/A
5:20 PM68 °FPassing clouds.6 mph35%30.04 "HgN/A
4:50 PM66 °FPassing clouds.6 mph40%30.04 "HgN/A
4:20 PM68 °FSunny.5 mph40%30.04 "Hg10 mi
3:50 PM64 °FPassing clouds.8 mph43%30.04 "HgN/A
3:20 PM66 °FPassing clouds.7 mph40%30.04 "HgN/A
2:50 PM64 °FScattered clouds.7 mph46%30.07 "HgN/A
2:20 PM66 °FScattered clouds.8 mph43%30.07 "HgN/A
1:50 PM66 °FScattered clouds.7 mph43%30.07 "HgN/A
1:20 PM64 °FScattered clouds.5 mph46%30.07 "HgN/A
12:50 PM64 °FScattered clouds.7 mph43%30.07 "HgN/A
12:20 PM63 °FScattered clouds.6 mph49%30.09 "HgN/A
11:50 AM61 °FScattered clouds.7 mph52%30.09 "HgN/A
11:20 AM63 °FScattered clouds.6 mph52%30.09 "HgN/A
Weather by CustomWeather, © 2014

See weather overviewHow to use our weather pages